Mount Sterling, KY

8:39 PM EST on December 07, 2016 (GMT -0500)
Mount Sterling-Montgomery County

Weather History for KIOB - April, 2014

Change the Weather History Date:

Tuesday, April 1, 2014

  Actual Average Record
Temperature  
Mean Temperature 64 °F -  
Max Temperature 77 °F 63 °F 77 °F (2014)
Min Temperature 51 °F 39 °F 32 °F (2015)
Degree Days  
Heating Degree Days 1    
Growing Degree Days 14 (Base 50)    
Moisture  
Dew Point 40 °F    
Average Humidity 41    
Maximum Humidity 55    
Minimum Humidity 33    
Precipitation  
Precipitation 0.00 in - - ()
Sea Level Pressure  
Sea Level Pressure 30.03 in    
Wind  
Wind Speed 9 mph (WSW)    
Max Wind Speed 23 mph    
Max Gust Speed 31 mph    
Visibility 10 miles    
Events Rain    
Averages and records for this station are not official NWS values.
T = Trace of Precipitation, MM = Missing Value Source: NWS Daily Summary

Daily Weather History Graph

Daily Weather History Graph

Search for Another Location

Airport or City:

Trip Planner

Search our weather history database for the weather conditions in past years. The results will help you decide how hot, cold, wet, or windy it might be!

Date:

Astronomy

Apr. 01, 2014 Rise Set
Actual Time 7:21 AM EDT 7:59 PM EDT
Civil Twilight 6:54 AM EDT 8:25 PM EDT
Nautical Twilight 6:23 AM EDT 8:56 PM EDT
Astronomical Twilight 5:51 AM EDT 9:29 PM EDT
Moon 8:24 AM EDT (4/1) 10:18 PM EDT (4/1)
Length of Visible Light 13h 31m
Length of Day
12h 37m
Waxing Crescent, 4% of the Moon is Illuminated
Apr 1
Waxing Crescent
Apr 7
First Quarter
Apr 15
Full
Apr 22
Last Quarter
Apr 29
New

Hourly Weather History & Observations

Time (EDT) Temp. Dew Point Humidity Pressure Visibility Wind Dir Wind Speed Gust Speed Precip Events Conditions
12:15 AM 53.6 °F 28.4 °F 38% 30.03 in 10.0 mi SSE 8.1 mph - N/A   Scattered Clouds
12:35 AM 53.6 °F 30.2 °F 41% 30.03 in 10.0 mi South 5.8 mph - N/A   Clear
12:55 AM 55.4 °F 30.2 °F 38% 30.03 in 10.0 mi South 5.8 mph - N/A   Clear
1:15 AM 55.4 °F 30.2 °F 38% 30.03 in 10.0 mi South 6.9 mph - N/A   Scattered Clouds
1:35 AM 55.4 °F 30.2 °F 38% 30.02 in 10.0 mi South 6.9 mph - N/A   Scattered Clouds
1:55 AM 55.4 °F 30.2 °F 38% 30.02 in 10.0 mi South 4.6 mph - N/A   Clear
2:15 AM 53.6 °F 32.0 °F 44% 30.02 in 10.0 mi South 4.6 mph - N/A   Mostly Cloudy
2:35 AM 53.6 °F 32.0 °F 44% 30.02 in 10.0 mi South 4.6 mph - N/A   Mostly Cloudy
2:55 AM 51.8 °F 33.8 °F 50% 30.03 in 10.0 mi SW 4.6 mph - N/A   Overcast
3:15 AM 55.4 °F 32.0 °F 41% 30.04 in 10.0 mi SW 8.1 mph - N/A Rain Light Rain
3:35 AM 59.0 °F 32.0 °F 36% 30.04 in 10.0 mi SW 11.5 mph - N/A Rain Light Rain
3:55 AM 59.0 °F 32.0 °F 36% 30.03 in 10.0 mi SW 8.1 mph - N/A   Overcast
4:15 AM 55.4 °F 32.0 °F 41% 30.03 in 10.0 mi SSW 9.2 mph - N/A   Overcast
4:35 AM 53.6 °F 33.8 °F 47% 30.03 in 10.0 mi WSW 8.1 mph - N/A   Overcast
4:55 AM 55.4 °F 33.8 °F 44% 30.03 in 10.0 mi SW 8.1 mph - N/A   Overcast
5:15 AM 55.4 °F 33.8 °F 44% 30.02 in 10.0 mi SW 8.1 mph - N/A   Overcast
5:35 AM 55.4 °F 33.8 °F 44% 30.01 in 10.0 mi SW 9.2 mph - N/A   Overcast
5:55 AM 55.4 °F 33.8 °F 44% 30.02 in 10.0 mi SW 8.1 mph - N/A   Overcast
6:15 AM 55.4 °F 35.6 °F 47% 30.01 in 10.0 mi SSW 9.2 mph - N/A   Overcast
6:35 AM 55.4 °F 35.6 °F 47% 30.01 in 10.0 mi SSW 13.8 mph - N/A   Overcast
6:55 AM 55.4 °F 35.6 °F 47% 30.02 in 10.0 mi SW 8.1 mph - N/A   Mostly Cloudy
7:15 AM 55.4 °F 37.4 °F 51% 30.02 in 10.0 mi SW 6.9 mph - N/A   Overcast
7:35 AM 55.4 °F 37.4 °F 51% 30.03 in 10.0 mi SW 10.4 mph - N/A   Overcast
7:55 AM 55.4 °F 37.4 °F 51% 30.03 in 10.0 mi SW 8.1 mph - N/A   Mostly Cloudy
8:15 AM 55.4 °F 37.4 °F 51% 30.03 in 10.0 mi SW 8.1 mph - N/A   Scattered Clouds
8:35 AM 55.4 °F 37.4 °F 51% 30.03 in 10.0 mi SW 8.1 mph - N/A   Clear
8:55 AM 59.0 °F 37.4 °F 45% 30.03 in 10.0 mi SW 11.5 mph - N/A   Clear
9:15 AM 60.8 °F 37.4 °F 42% 30.03 in 10.0 mi SW 9.2 mph - N/A   Clear
9:35 AM 60.8 °F 35.6 °F 39% 30.03 in 10.0 mi WSW 9.2 mph 17.3 mph N/A   Clear
9:55 AM 62.6 °F 37.4 °F 39% 30.03 in 10.0 mi WSW 11.5 mph 19.6 mph N/A   Clear
10:15 AM 64.4 °F 37.4 °F 37% 30.03 in 10.0 mi WSW 16.1 mph 23.0 mph N/A   Clear
10:35 AM 66.2 °F 39.2 °F 37% 30.03 in 10.0 mi West 16.1 mph 23.0 mph N/A   Clear
10:55 AM 68.0 °F 41.0 °F 37% 30.03 in 10.0 mi West 15.0 mph 23.0 mph N/A   Clear
11:15 AM 68.0 °F 42.8 °F 40% 30.04 in 10.0 mi West 17.3 mph 23.0 mph N/A   Clear
11:35 AM 68.0 °F 42.8 °F 40% 30.04 in 10.0 mi WSW 16.1 mph 23.0 mph N/A   Clear
11:55 AM 69.8 °F 42.8 °F 38% 30.03 in 10.0 mi West 19.6 mph 24.2 mph N/A   Clear
12:15 PM 69.8 °F 42.8 °F 38% 30.03 in 10.0 mi WSW 15.0 mph 24.2 mph N/A   Clear
12:35 PM 71.6 °F 42.8 °F 35% 30.03 in 10.0 mi WSW 15.0 mph 20.7 mph N/A   Clear
12:55 PM 71.6 °F 42.8 °F 35% 30.03 in 10.0 mi West 15.0 mph 19.6 mph N/A   Clear
1:15 PM 73.4 °F 42.8 °F 33% 30.03 in 10.0 mi WNW 15.0 mph 26.5 mph N/A   Clear
1:35 PM 73.4 °F 42.8 °F 33% 30.03 in 10.0 mi West 17.3 mph 23.0 mph N/A   Clear
1:55 PM 73.4 °F 44.6 °F 36% 30.02 in 10.0 mi West 12.7 mph 26.5 mph N/A   Clear
2:15 PM 75.2 °F 46.4 °F 36% 30.02 in 10.0 mi WNW 15.0 mph 23.0 mph N/A   Clear
2:35 PM 73.4 °F 46.4 °F 38% 30.02 in 10.0 mi West 13.8 mph 27.6 mph N/A   Clear
2:55 PM 75.2 °F 46.4 °F 36% 30.02 in 10.0 mi West 18.4 mph 29.9 mph N/A   Clear
3:15 PM 75.2 °F 46.4 °F 36% 30.02 in 10.0 mi West 16.1 mph 25.3 mph N/A   Clear
3:35 PM 75.2 °F 46.4 °F 36% 30.02 in 10.0 mi West 20.7 mph 31.1 mph N/A   Clear
3:55 PM 75.2 °F 46.4 °F 36% 30.02 in 10.0 mi West 18.4 mph 28.8 mph N/A   Clear
4:15 PM 77.0 °F 46.4 °F 34% 30.01 in 10.0 mi West 17.3 mph 25.3 mph N/A   Clear
4:35 PM 75.2 °F 46.4 °F 36% 30.01 in 10.0 mi West 23.0 mph 28.8 mph N/A   Clear
4:55 PM 75.2 °F 46.4 °F 36% 30.01 in 10.0 mi West 16.1 mph 26.5 mph N/A   Clear
5:15 PM 75.2 °F 46.4 °F 36% 30.00 in 10.0 mi West 12.7 mph 26.5 mph N/A   Clear
5:35 PM 75.2 °F 46.4 °F 36% 30.00 in 10.0 mi West 12.7 mph 21.9 mph N/A   Clear
5:55 PM 75.2 °F 46.4 °F 36% 30.00 in 10.0 mi WNW 17.3 mph 24.2 mph N/A   Clear
6:15 PM 75.2 °F 44.6 °F 34% 30.00 in 10.0 mi West 12.7 mph 19.6 mph N/A   Clear
6:35 PM 73.4 °F 44.6 °F 36% 30.00 in 10.0 mi West 13.8 mph 20.7 mph N/A   Clear
6:55 PM 73.4 °F 44.6 °F 36% 30.01 in 10.0 mi West 8.1 mph - N/A   Clear
7:15 PM 73.4 °F 44.6 °F 36% 30.02 in 10.0 mi West 5.8 mph - N/A   Clear
7:35 PM 71.6 °F 44.6 °F 38% 30.02 in 10.0 mi West 8.1 mph 16.1 mph N/A   Clear
7:55 PM 69.8 °F 44.6 °F 40% 30.02 in 10.0 mi West 4.6 mph - N/A   Clear
8:15 PM 69.8 °F 44.6 °F 40% 30.02 in 10.0 mi WSW 5.8 mph - N/A   Clear
8:35 PM 68.0 °F 44.6 °F 43% 30.03 in 10.0 mi West 4.6 mph - N/A   Clear
8:55 PM 64.4 °F 44.6 °F 49% 30.03 in 10.0 mi West 3.5 mph - N/A   Clear
9:15 PM 64.4 °F 44.6 °F 49% 30.03 in 10.0 mi West 3.5 mph - N/A   Clear
9:35 PM 62.6 °F 44.6 °F 52% 30.05 in 10.0 mi WNW 4.6 mph - N/A   Clear
9:55 PM 62.6 °F 44.6 °F 52% 30.06 in 10.0 mi NW 6.9 mph - N/A   Clear
10:15 PM 64.4 °F 41.0 °F 42% 30.07 in 10.0 mi NNW 13.8 mph 26.5 mph N/A   Clear
10:35 PM 64.4 °F 41.0 °F 42% 30.08 in 10.0 mi NNW 9.2 mph 19.6 mph N/A   Clear
10:55 PM 62.6 °F 41.0 °F 45% 30.07 in 10.0 mi North 6.9 mph 19.6 mph N/A   Clear
11:15 PM 60.8 °F 41.0 °F 48% 30.06 in 10.0 mi North 6.9 mph - N/A   Clear
11:35 PM 60.8 °F 42.8 °F 52% 30.06 in 10.0 mi Calm Calm - N/A   Clear
11:55 PM 59.0 °F 42.8 °F 55% 30.06 in 10.0 mi Calm Calm - N/A   Clear